DW2893 Weather Reports


time (UTC)temp
C
wind
direction
speed
KPH
gust
KPH
rain 1hr
cm
rain 24hr
cm
rain mn
cm
humidity
%
barometer
mb
20260906230807 36 125 4.8 19.3 0.00 0.00 0.00 42 1009.4
20260906225308 36 138 12.9 24.1 0.00 0.00 0.00 41 1009.2
20260906224808 36 82 9.7 20.9 0.00 0.00 0.00 43 1009.3
20260906223808 36 105 9.7 19.3 0.00 0.00 0.00 42 1009.4
20260906212808 37 110 11.3 19.3 0.00 0.00 0.00 41 1009.8
20260906205308 37 127 14.5 20.9 0.00 0.00 0.00 41 1010.5
20260906204807 36 120 11.3 24.1 0.00 0.00 0.00 44 1010.5
20260906203807 36 108 9.7 20.9 0.00 0.00 0.00 44 1010.5
20260906203308 36 87 9.7 14.5 0.00 0.00 0.00 44 1010.5
20260906202807 36 98 14.5 25.7 0.00 0.00 0.00 44 1010.7
20260906202308 36 98 11.3 22.5 0.00 0.00 0.00 45 1010.7
20260906200808 36 85 6.4 19.3 0.00 0.00 0.00 45 1010.8
20260906191808 36 93 11.3 25.7 0.00 0.00 0.00 46 1011.3
20260906191308 36 134 12.9 20.9 0.00 0.00 0.00 46 1011.3
20260906190808 36 113 11.3 19.3 0.00 0.00 0.00 47 1011.6
20260906185807 36 143 14.5 25.7 0.00 0.00 0.00 48 1011.6
20260906184807 35 167 11.3 24.1 0.00 0.00 0.00 49 1011.6
20260906180307 35 79 6.4 20.9 0.00 0.00 0.00 51 1012.4
20260906175807 35 76 11.3 20.9 0.00 0.00 0.00 50 1012.4
20260906175307 35 98 9.7 19.3 0.00 0.00 0.00 49 1012.4
20260906174807 35 134 9.7 27.4 0.00 0.00 0.00 50 1012.4
20260906173807 35 110 9.7 24.1 0.00 0.00 0.00 51 1012.5
20260906172306 35 97 8.0 19.3 0.00 0.00 0.00 51 1012.7
20260906171307 35 9 8.0 16.1 0.00 0.00 0.00 52 1012.9
20260906170806 35 119 3.2 19.3 0.00 0.00 0.00 53 1012.9
20260906170307 34 119 11.3 19.3 0.00 0.00 0.00 53 1012.9
20260906165807 34 94 9.7 22.5 0.00 0.00 0.00 53 1012.9
20260906165307 34 53 14.5 22.5 0.00 0.00 0.00 53 1012.9
20260906164807 34 111 11.3 19.3 0.00 0.00 0.00 54 1012.9
20260906163307 34 110 9.7 19.3 0.00 0.00 0.00 56 1013.0
20260906162807 33 149 11.3 20.9 0.00 0.00 0.00 55 1013.0
20260906161807 33 138 4.8 12.9 0.00 0.00 0.00 59 1012.9
20260906160807 33 117 6.4 19.3 0.00 0.00 0.00 59 1012.9
20260906155307 32 111 6.4 14.5 0.00 0.00 0.00 62 1012.8
20260906154306 32 81 8.0 16.1 0.00 0.00 0.00 63 1012.8
20260906153807 32 83 9.7 16.1 0.00 0.00 0.00 64 1012.8
20260906153306 32 84 6.4 12.9 0.00 0.00 0.00 66 1012.8
20260906152807 32 74 8.0 12.9 0.00 0.00 0.00 66 1012.5
20260906151306 31 106 3.2 11.3 0.00 0.00 0.00 70 1012.5
20260906150307 30 134 4.8 11.3 0.00 0.00 0.00 73 1012.5
20260906145807 30 96 3.2 9.7 0.00 0.00 0.00 74 1012.6
20260906144307 29 80 4.8 8.0 0.00 0.00 0.00 76 1012.8
20260906143307 28 118 4.8 9.7 0.00 0.00 0.00 77 1012.8
20260906142806 28 118 4.8 9.7 0.00 0.00 0.00 79 1012.8
20260906142307 28 116 3.2 4.8 0.00 0.00 0.00 79 1012.8
20260906141806 28 116 3.2 4.8 0.00 0.00 0.00 80 1012.7
20260906141306 28 116 1.6 8.0 0.00 0.00 0.00 81 1012.7
20260906140806 27 116 4.8 4.8 0.00 0.00 0.00 82 1012.7
20260906140306 27 116 3.2 8.0 0.00 0.00 0.00 83 1012.5
20260906135807 27 117 6.4 8.0 0.00 0.00 0.00 83 1012.5
20260906133807 26 96 4.8 8.0 0.00 0.00 0.00 86 1012.6
20260906133306 26 92 4.8 8.0 0.00 0.00 0.00 86 1012.6
20260906132806 26 90 4.8 8.0 0.00 0.00 0.00 87 1012.6
20260906132307 26 88 4.8 8.0 0.00 0.00 0.00 87 1012.7
20260906131807 26 155 3.2 8.0 0.00 0.00 0.00 88 1012.7
20260906124806 25 157 3.2 8.0 0.00 0.00 0.00 89 1012.4
20260906124306 25 156 3.2 4.8 0.00 0.00 0.00 89 1012.4
20260906123806 25 157 0.0 1.6 0.00 0.00 0.00 89 1012.4
20260906123306 25 157 0.0 1.6 0.00 0.00 0.00 89 1012.2
20260906122806 25 157 1.6 3.2 0.00 0.00 0.00 89 1012.3
20260906122306 25 149 1.6 4.8 0.00 0.00 0.00 88 1012.1
20260906120806 25 157 0.0 1.6 0.00 0.00 0.00 87 1012.0
20260906120306 25 157 0.0 1.6 0.00 0.00 0.00 87 1012.0
20260906115806 25 157 0.0 1.6 0.00 0.00 0.00 87 1011.9
20260906112307 25 157 3.2 8.0 0.00 0.00 0.00 86 1011.7
20260906111806 25 156 3.2 8.0 0.00 0.00 0.00 86 1011.7
20260906110305 26 161 1.6 4.8 0.00 0.00 0.00 86 1011.6
20260906105806 26 161 4.8 8.0 0.00 0.00 0.00 86 1011.5
20260906105306 26 161 3.2 4.8 0.00 0.00 0.00 86 1011.5
20260906103806 26 162 3.2 4.8 0.00 0.00 0.00 86 1011.5
20260906103306 26 162 3.2 4.8 0.00 0.00 0.00 86 1011.4
20260906102805 26 162 0.0 3.2 0.00 0.00 0.00 85 1011.4
20260906101806 26 162 0.0 3.2 0.00 0.00 0.00 85 1011.4
20260906100806 26 162 1.6 3.2 0.00 0.00 0.00 85 1011.4
20260906100306 26 162 1.6 4.8 0.00 0.00 0.00 85 1011.4
20260906095805 26 162 1.6 3.2 0.00 0.00 0.00 84 1011.4
20260906095306 26 162 0.0 0.0 0.00 0.00 0.00 83 1011.0
20260906094806 26 162 0.0 0.0 0.00 0.00 0.00 83 1011.0
20260906092306 26 162 0.0 1.6 0.00 0.00 0.00 82 1010.9
20260906091806 26 162 0.0 1.6 0.00 0.00 0.00 82 1010.9
20260906091306 26 162 1.6 4.8 0.00 0.00 0.00 82 1010.8
20260906090806 26 162 1.6 4.8 0.00 0.00 0.00 82 1010.7
20260906083805 27 138 8.0 11.3 0.00 0.00 0.00 81 1010.7
20260906083305 27 183 4.8 11.3 0.00 0.00 0.00 80 1010.7
20260906082805 27 162 8.0 11.3 0.00 0.00 0.00 80 1010.7
20260906082306 27 134 4.8 9.7 0.00 0.00 0.00 80 1010.7
20260906081805 27 152 6.4 9.7 0.00 0.00 0.00 80 1010.7
20260906080305 27 155 4.8 8.0 0.00 0.00 0.00 79 1010.9
20260906075805 27 154 4.8 9.7 0.00 0.00 0.00 79 1010.7
20260906075306 27 154 8.0 11.3 0.00 0.00 0.00 79 1010.7
20260906074806 27 154 4.8 8.0 0.00 0.00 0.00 78 1010.7
20260906073805 27 156 8.0 12.9 0.00 0.00 0.00 78 1010.7
20260906071305 27 200 4.8 9.7 0.00 0.00 0.00 76 1011.1
20260906070305 28 185 4.8 9.7 0.00 0.00 0.00 75 1011.1
20260906065805 28 109 8.0 16.1 0.00 0.00 0.00 75 1011.0
20260906065306 28 156 9.7 14.5 0.00 0.00 0.00 75 1011.0
20260906064805 28 150 6.4 12.9 0.00 0.00 0.00 74 1011.1
20260906064305 28 168 6.4 12.9 0.00 0.00 0.00 74 1011.2
20260906063305 28 170 8.0 12.9 0.00 0.00 0.00 73 1011.2
20260906060805 28 153 8.0 14.5 0.00 0.00 0.00 71 1011.2
20260906055804 28 157 8.0 9.7 0.00 0.00 0.00 70 1011.2
20260906054805 28 164 6.4 11.3 0.00 0.00 0.00 70 1011.2
20260906053805 28 148 8.0 12.9 0.00 0.00 0.00 70 1011.2
20260906052805 28 175 8.0 11.3 0.00 0.00 0.00 70 1010.9
20260906052306 28 178 4.8 9.7 0.00 0.00 0.00 70 1010.9
20260906051304 29 172 3.2 8.0 0.00 0.00 0.00 69 1011.1
20260906050836 29 173 3.2 8.0 0.00 0.00 0.00 69 1011.1
20260906045804 29 173 4.8 9.7 0.00 0.00 0.00 69 1011.1
20260906045306 29 173 4.8 9.7 0.00 0.00 0.00 69 1011.1
20260906043304 29 145 8.0 14.5 0.00 0.00 0.00 68 1011.1
20260906042805 29 113 9.7 14.5 0.00 0.00 0.00 68 1011.0
20260906042306 29 127 4.8 11.3 0.00 0.00 0.00 68 1011.0
20260906041805 30 153 4.8 12.9 0.00 0.00 0.00 68 1011.0
20260906040804 30 137 9.7 14.5 0.00 0.00 0.00 67 1011.0
20260906035804 30 154 9.7 14.5 0.00 0.00 0.00 67 1011.1
20260906031804 30 134 8.0 16.1 0.00 0.00 0.00 65 1011.1
20260906030805 30 149 11.3 20.9 0.00 0.00 0.00 64 1011.0
20260906025805 30 121 12.9 29.0 0.00 0.00 0.00 64 1011.1
20260906024304 30 78 9.7 24.1 0.00 0.00 0.00 63 1010.6
20260906023304 31 80 9.7 19.3 0.00 0.00 0.00 62 1010.6
20260906022804 31 67 11.3 24.1 0.00 0.00 0.00 62 1010.7
20260906020804 31 122 11.3 19.3 0.00 0.00 0.00 61 1010.5
20260906015804 31 48 11.3 19.3 0.00 0.00 0.00 61 1010.2
20260906014805 31 128 11.3 19.3 0.00 0.00 0.00 60 1010.2
20260906013804 31 131 6.4 22.5 0.00 0.00 0.00 59 1010.2
20260906013304 32 11 16.1 29.0 0.00 0.00 0.00 58 1010.0
20260906012306 32 128 14.5 22.5 0.00 0.00 0.00 55 1009.6
20260906011804 33 57 14.5 22.5 0.00 0.00 0.00 54 1009.6
20260906010804 33 95 9.7 24.1 0.00 0.00 0.00 53 1009.5
20260906005306 34 17 12.9 20.9 0.00 0.00 0.00 50 1009.3
20260906004804 35 39 16.1 29.0 0.00 0.00 0.00 49 1009.1
20260906004305 35 136 6.4 12.9 0.00 0.00 0.00 47 1009.1
20260906002804 35 40 8.0 16.1 0.00 0.00 0.00 45 1009.1
20260906000808 35 140 11.3 16.1 0.00 0.00 0.00 44 1009.1
20260906000308 36 60 9.7 19.3 0.00 0.00 0.00 44 1009.0
20260905234808 36 94 9.7 19.3 0.00 0.00 0.00 44 1009.0
20260905234308 36 97 9.7 16.1 0.00 0.00 0.00 43 1009.0
20260905233808 36 71 8.0 19.3 0.00 0.00 0.00 43 1008.9
20260905233308 36 138 9.7 19.3 0.00 0.00 0.00 43 1009.0
20260905232808 36 133 8.0 14.5 0.00 0.00 0.00 43 1009.1
20260905232308 36 82 8.0 14.5 0.00 0.00 0.00 42 1009.1
20260905231807 36 96 8.0 16.1 0.00 0.00 0.00 42 1009.0